Location: M?digepalle
(16.1753°N, 80.3496°E)
Time: 12:10:26
(UTC+00:00)

Stardust Del rocket - Pass Details

Date: 29 October 2020
Orbit: 286 x 4194 km, 22.5° (Epoch: 23 November)

Event Time Altitude Azimuth Distance (km) Brightness Sun altitude
Exits shadow 23:09:12 28° 52° (NE) 633 4.0 -21.0°
Drops below altitude 10° 23:10:52 10° 66° (ENE) 1,353 6.1 -20.6°
Sets 23:13:24 0° 71° (ENE) 2,516 7.8 -20.0°
